Weatherford, Texas, United States (76085)
Lat: 32.76N, Lon: 97.8W
Wx Zone: TXZ117
Local Info
Past Weather Observations for Sunday, March 1, 2015

NOTE: This archive is for the closest National Weather Service station to Weatherford. Information may differ from the station used for current weather conditions.

Click here for Long-term Archive

Time Weather Temperature Dewpoint Humidity Pressure Winds Precip Visibility
23:53
Overcast
Fog And Mist
34°F / 1°C 34°F / 1°C 100% 30.39 in
(1029 mb)
N 8.1 mph
(N 13 kph)
- 2SM
23:09
Overcast
Fog And Mist
34°F / 1°C 32°F / 0°C 93% 30.39 in
(1029 mb)
N 8.1 mph
(N 13 kph)
- 2 1/2SM
22:53
Overcast
Fog And Mist
34°F / 1°C 32°F / 0°C 93% 30.39 in
(1029 mb)
NNW 8.1 mph
(NNW 13 kph)
0.00 in
(0.00 mm)
5SM
22:13
Overcast
Fog And Mist
34°F / 1°C 32°F / 0°C 93% 30.39 in
(1029 mb)
NNW 8.1 mph
(NNW 13 kph)
0.00 in
(0.00 mm)
5SM
21:53
Overcast
Light Rain
34°F / 1°C 32°F / 0°C 93% 30.39 in
(1029 mb)
NNW 6.9 mph
(NNW 11 kph)
0.00 in
(0.00 mm)
4SM
20:53
Overcast
Fog And Mist
34°F / 1°C 32°F / 0°C 93% 30.36 in
(1028 mb)
NNW 8.1 mph
(NNW 13 kph)
- 5SM
19:53
Overcast
Fog And Mist
34°F / 1°C 32°F / 0°C 93% 30.33 in
(1027 mb)
NNW 6.9 mph
(NNW 11 kph)
- 6SM
18:53
Overcast
34°F / 1°C 32°F / 0°C 93% 30.33 in
(1027 mb)
NNW 4.6 mph
(NNW 7 kph)
- 7SM
17:53
Overcast
36°F / 2°C 32°F / 0°C 87% 30.3 in
(1026 mb)
N 10.4 mph
(N 17 kph)
- 7SM
16:53
Overcast
34°F / 1°C 32°F / 0°C 93% 30.3 in
(1026 mb)
N 10.4 mph
(N 17 kph)
- 7SM
15:53
Overcast
34°F / 1°C 32°F / 0°C 93% 30.3 in
(1026 mb)
N 10.4 mph
(N 17 kph)
- 10SM
14:53
Overcast
34°F / 1°C 32°F / 0°C 93% 30.3 in
(1026 mb)
N 9.2 mph
(N 15 kph)
- 10SM
13:53
Overcast
34°F / 1°C 30°F / -1°C 87% 30.3 in
(1026 mb)
N 10.4 mph
(N 17 kph)
- 10SM
13:43
Overcast
34°F / 1°C 30°F / -1°C 87% 30.3 in
(1026 mb)
N 12.7 mph
(N 20 kph)
- 10SM
12:53
Overcast
Fog And Mist
34°F / 1°C 30°F / -1°C 87% 30.33 in
(1027 mb)
N 9.2 mph
(N 15 kph)
- 6SM
11:53
Overcast
Fog And Mist
34°F / 1°C 30°F / -1°C 87% 30.36 in
(1028 mb)
N 10.4 mph
(N 17 kph)
- 5SM
10:53
Overcast
34°F / 1°C 30°F / -1°C 87% 30.36 in
(1028 mb)
N 8.1 mph
(N 13 kph)
- 10SM
10:17
Overcast
34°F / 1°C 30°F / -1°C 87% 30.36 in
(1028 mb)
N 6.9 mph
(N 11 kph)
- 10SM
10:03
Overcast
34°F / 1°C 30°F / -1°C 87% 30.33 in
(1027 mb)
N 8.1 mph
(N 13 kph)
- 8SM
09:53
Overcast
Fog And Mist
34°F / 1°C 30°F / -1°C 87% 30.33 in
(1027 mb)
N 8.1 mph
(N 13 kph)
- 6SM
09:45
Overcast
Fog And Mist
34°F / 1°C 30°F / -1°C 87% 30.33 in
(1027 mb)
N 6.9 mph
(N 11 kph)
- 4SM
09:08
Overcast
Fog And Mist
32°F / 0°C 30°F / -1°C 93% 30.33 in
(1027 mb)
N 5.8 mph
(N 9 kph)
- 2 1/2SM
08:53
Overcast
Fog And Mist
32°F / 0°C 30°F / -1°C 93% 30.33 in
(1027 mb)
N 6.9 mph
(N 11 kph)
- 2 1/2SM
08:29
Overcast
Fog And Mist
32°F / 0°C 30°F / -1°C 93% 30.33 in
(1027 mb)
N 5.8 mph
(N 9 kph)
- 2 1/2SM
08:06
Overcast
Fog And Mist
30°F / -1°C 30°F / -1°C 100% 30.33 in
(1027 mb)
N 5.8 mph
(N 9 kph)
- 2SM
07:53
Overcast
Fog And Mist
30°F / -1°C 30°F / -1°C 100% 30.33 in
(1027 mb)
NNW 5.8 mph
(NNW 9 kph)
- 1 3/4SM
07:03
Overcast
Fog And Mist
30°F / -1°C 30°F / -1°C 100% 30.3 in
(1026 mb)
N 5.8 mph
(N 9 kph)
- 1 1/2SM
06:53
Overcast
Fog And Mist
30°F / -1°C 28°F / -2°C 93% 30.3 in
(1026 mb)
N 6.9 mph
(N 11 kph)
- 2SM
06:04
Overcast
Fog And Mist
30°F / -1°C 28°F / -2°C 93% 30.3 in
(1026 mb)
N 6.9 mph
(N 11 kph)
- 2SM
05:53
Overcast
Fog And Mist
30°F / -1°C 28°F / -2°C 93% 30.3 in
(1026 mb)
N 5.8 mph
(N 9 kph)
0.00 in
(0.00 mm)
1 3/4SM
05:43
Overcast
Fog And Mist
30°F / -1°C 28°F / -2°C 93% 30.27 in
(1025 mb)
N 6.9 mph
(N 11 kph)
0.00 in
(0.00 mm)
2SM
05:29
Overcast
Fog And Mist
30°F / -1°C 28°F / -2°C 93% 30.27 in
(1025 mb)
N 5.8 mph
(N 9 kph)
0.00 in
(0.00 mm)
3SM
05:06
Overcast
Fog And Mist
30°F / -1°C 28°F / -2°C 93% 30.27 in
(1025 mb)
N 6.9 mph
(N 11 kph)
0.00 in
(0.00 mm)
2SM
04:53
Overcast
Unknown Precip
30°F / -1°C 28°F / -2°C 93% 30.27 in
(1025 mb)
N 5.8 mph
(N 9 kph)
0.00 in
(0.00 mm)
1 3/4SM
04:24
Overcast
Fog And Mist
30°F / -1°C 28°F / -2°C 93% 30.27 in
(1025 mb)
N 6.9 mph
(N 11 kph)
- 2 1/2SM
03:53
Overcast
Fog And Mist
30°F / -1°C 28°F / -2°C 93% 30.27 in
(1025 mb)
N 5.8 mph
(N 9 kph)
- 3SM
03:36
Overcast
Fog And Mist
30°F / -1°C 28°F / -2°C 93% 30.27 in
(1025 mb)
NNW 5.8 mph
(NNW 9 kph)
- 3SM
03:32
Overcast
Fog And Mist
30°F / -1°C 28°F / -2°C 93% 30.27 in
(1025 mb)
NNW 5.8 mph
(NNW 9 kph)
- 2 1/2SM
03:19
Overcast
Fog And Mist
30°F / -1°C 28°F / -2°C 93% 30.3 in
(1026 mb)
NNW 5.8 mph
(NNW 9 kph)
- 2 1/2SM
03:09
Overcast
Fog And Mist
30°F / -1°C 28°F / -2°C 93% 30.27 in
(1025 mb)
NNW 5.8 mph
(NNW 9 kph)
- 2 1/2SM
02:53
Overcast
Fog And Mist
30°F / -1°C 28°F / -2°C 93% 30.27 in
(1025 mb)
N 5.8 mph
(N 9 kph)
- 3SM
02:32
Overcast
Fog And Mist
30°F / -1°C 28°F / -2°C 93% 30.27 in
(1025 mb)
NNW 4.6 mph
(NNW 7 kph)
- 2 1/2SM
02:28
Overcast
Fog And Mist
30°F / -1°C 28°F / -2°C 93% 30.27 in
(1025 mb)
NNW 4.6 mph
(NNW 7 kph)
- 3SM
01:53
Overcast
Fog And Mist
30°F / -1°C 28°F / -2°C 93% 30.27 in
(1025 mb)
NNE 3.5 mph
(NNE 6 kph)
- 4SM
00:53
Overcast
Fog And Mist
30°F / -1°C 28°F / -2°C 93% 30.3 in
(1026 mb)
SE 3.5 mph
(SE 6 kph)
0.00 in
(0.00 mm)
4SM
00:46
Overcast
Fog And Mist
30°F / -1°C 28°F / -2°C 93% 30.27 in
(1025 mb)
ESE 3.5 mph
(ESE 6 kph)
0.00 in
(0.00 mm)
4SM
00:24
Overcast
Fog And Mist
30°F / -1°C 28°F / -2°C 93% 30.3 in
(1026 mb)
E 3.5 mph
(E 6 kph)
0.00 in
(0.00 mm)
4SM
00:11
Overcast
Unknown Precip
30°F / -1°C 28°F / -2°C 93% 30.3 in
(1026 mb)
E 3.5 mph
(E 6 kph)
0.00 in
(0.00 mm)
3SM
Time Weather Temperature Dewpoint Humidity Pressure Winds Precip Visibility


Weather for websites

WeatherForYou.com, LLC is not responsible for any damages or problems caused by this service. Current weather conditions are obtained from the closest station including government and personal stations which may have varying degrees of accuracy. Weather forecasts are derived from the NOAA NDFD. Like all things, this site belongs to Jesus Christ... He just trusts me to maintain it. If you have any questions or comments email webmaster@weatherforyou.com

Copyright © 2015, WeatherForYou.com LLC. All rights reserved.